OK1FET-5 Weather Reports


Display with metric or nautical units.
time (UTC)temp
F
wind
direction
speed
MPH
gust
MPH
rain 1hr
in
rain 24hr
in
rain mn
in
humidity
%
barometer
mb
20260506043822 55 261 3.0 6.0 0.00 0.00 0.00 77 1006.9
20260506043328 54 277 4.0 8.0 0.00 0.00 0.00 78 1006.9
20260506042834 55 271 4.0 8.0 0.00 0.00 0.00 77 1007.0
20260506042340 54 234 4.0 9.0 0.00 0.00 0.00 77 1006.9
20260506041845 54 261 4.0 8.0 0.00 0.00 0.00 78 1006.8
20260506041351 54 262 4.0 7.0 0.00 0.00 0.00 77 1006.8
20260506040857 55 261 4.0 6.0 0.00 0.00 0.00 79 1006.7
20260506040403 54 283 4.0 6.0 0.00 0.00 0.00 80 1006.6
20260506035908 54 258 3.0 5.0 0.00 0.00 0.00 84 1006.6
20260506035414 53 283 3.0 5.0 0.00 0.00 0.00 88 1006.4
20260506034920 52 274 4.0 10.0 0.00 0.00 0.00 90 1006.5
20260506034426 51 300 3.0 6.0 0.00 0.00 0.00 92 1006.5
20260506033932 51 299 3.0 7.0 0.00 0.00 0.00 92 1006.6
20260506033438 51 285 3.0 5.0 0.00 0.00 0.00 91 1006.6
20260506032943 51 291 3.0 6.0 0.00 0.00 0.00 93 1006.6
20260506032449 51 287 3.0 5.0 0.00 0.00 0.00 92 1006.6
20260506031955 51 277 3.0 5.0 0.00 0.00 0.00 91 1006.6
20260506031501 51 293 3.0 6.0 0.00 0.00 0.00 90 1006.6
20260506031007 51 280 3.0 4.0 0.00 0.00 0.00 90 1006.6
20260506030513 51 246 3.0 5.0 0.00 0.00 0.00 89 1006.6
20260506030018 51 263 2.0 4.0 0.00 0.00 0.00 90 1006.6
20260506025524 51 286 2.0 4.0 0.00 0.00 0.00 91 1006.5
20260506025030 51 283 2.0 3.0 0.00 0.00 0.00 91 1006.5
20260506024536 51 264 2.0 3.0 0.00 0.00 0.00 90 1006.6
20260506024042 51 235 2.0 4.0 0.00 0.00 0.00 90 1006.7
20260506023548 51 273 2.0 3.0 0.00 0.00 0.00 92 1006.8
20260506023053 51 300 2.0 3.0 0.00 0.00 0.00 93 1006.8
20260506022559 52 312 2.0 3.0 0.00 0.00 0.00 95 1006.8
20260506022105 52 294 2.0 4.0 0.00 0.00 0.00 96 1006.8
20260506021611 52 309 3.0 4.0 0.00 0.00 0.00 98 1006.8
20260506021117 52 306 2.0 3.0 0.00 0.00 0.00 97 1006.8
20260506020128 52 322 3.0 5.0 0.00 0.00 0.00 100 1006.8
20260506015634 52 321 3.0 4.0 0.00 0.00 0.00 100 1006.8
20260506015140 52 324 3.0 4.0 0.00 0.00 0.00 100 1006.8
20260506014646 52 327 3.0 5.0 0.00 0.00 0.00 100 1006.8
20260506014152 52 315 3.0 5.0 0.00 0.00 0.00 100 1006.7
20260506013657 52 318 4.0 6.0 0.00 0.00 0.00 100 1006.7
20260506013204 52 321 4.0 5.0 0.00 0.00 0.00 100 1006.7
20260506012709 52 318 4.0 5.0 0.00 0.00 0.00 100 1006.6
20260506011721 52 318 3.0 6.0 0.00 0.00 0.00 100 1006.5
20260506011227 52 316 4.0 6.0 0.00 0.00 0.00 100 1006.5
20260506010732 53 319 5.0 6.0 0.00 0.00 0.00 100 1006.6
20260506010238 53 316 4.0 5.0 0.00 0.00 0.00 97 1006.6
20260506005744 53 316 4.0 6.0 0.00 0.00 0.00 96 1006.5
20260506005250 53 319 3.0 5.0 0.00 0.00 0.00 94 1006.6
20260506004755 53 308 2.0 4.0 0.00 0.00 0.00 94 1006.4
20260506004302 53 322 3.0 5.0 0.00 0.00 0.00 95 1006.6
20260506003807 53 312 3.0 5.0 0.00 0.00 0.00 96 1006.7
20260506003313 53 311 3.0 5.0 0.00 0.00 0.00 94 1006.8
20260506002819 53 312 3.0 3.0 0.00 0.00 0.00 92 1006.7
20260506002324 53 306 3.0 4.0 0.00 0.00 0.00 93 1006.7
20260506001830 53 321 3.0 4.0 0.00 0.00 0.00 94 1006.5
20260506001336 53 313 2.0 4.0 0.00 0.00 0.00 93 1006.6
20260506000842 53 305 3.0 5.0 0.00 0.00 0.00 94 1006.6
20260506000348 53 308 4.0 5.0 0.00 0.00 0.00 93 1006.6
20260505235853 53 294 3.0 7.0 0.00 0.00 0.00 90 1006.7
20260505235359 53 272 2.0 4.0 0.00 0.00 0.00 86 1006.7
20260505234905 53 231 2.0 3.0 0.00 0.00 0.00 85 1006.8
20260505234411 53 222 3.0 4.0 0.00 0.00 0.00 85 1006.7
20260505233916 53 204 5.0 6.0 0.00 0.00 0.00 85 1006.6
20260505233422 53 249 2.0 4.0 0.00 0.00 0.00 85 1006.6
20260505232928 53 289 2.0 3.0 0.00 0.00 0.00 87 1006.6
20260505232434 53 239 4.0 7.0 0.00 0.00 0.00 86 1006.7
20260505231939 53 192 6.0 8.0 0.00 0.00 0.00 85 1006.7
20260505231445 53 225 3.0 5.0 0.00 0.00 0.00 83 1006.7
20260505230951 53 303 2.0 4.0 0.00 0.00 0.00 86 1006.6
20260505230457 53 117 3.0 5.0 0.00 0.00 0.00 87 1006.4
20260505230003 53 157 3.0 4.0 0.00 0.00 0.00 87 1006.5
20260505225508 53 357 2.0 4.0 0.00 0.00 0.00 88 1006.4
20260505225014 53 8 2.0 5.0 0.00 0.00 0.00 88 1006.2
20260505224520 53 348 2.0 2.0 0.00 0.00 0.00 87 1006.2
20260505224025 53 294 1.0 4.0 0.00 0.00 0.00 88 1006.5
20260505223531 53 315 2.0 3.0 0.00 0.00 0.00 88 1006.7
20260505223037 53 332 2.0 5.0 0.00 0.00 0.00 88 1006.8
20260505222543 53 8 2.0 3.0 0.00 0.00 0.00 89 1006.9
20260505222048 53 329 3.0 6.0 0.00 0.00 0.00 89 1007.1
20260505221554 53 351 2.0 4.0 0.00 0.00 0.00 90 1007.2
20260505221100 53 356 3.0 6.0 0.00 0.00 0.00 91 1007.2
20260505220606 53 341 4.0 7.0 0.00 0.00 0.00 93 1007.2
20260505220111 53 328 4.0 6.0 0.00 0.00 0.00 95 1007.1
20260505215617 53 324 4.0 7.0 0.00 0.00 0.00 93 1007.3
20260505215123 53 330 4.0 7.0 0.00 0.00 0.00 92 1007.3
20260505214629 53 342 5.0 7.0 0.00 0.00 0.00 90 1007.4
20260505214134 53 328 4.0 7.0 0.00 0.00 0.00 91 1007.5
20260505213640 53 336 5.0 8.0 0.00 0.00 0.00 92 1007.5
20260505213146 53 324 4.0 5.0 0.00 0.00 0.00 92 1007.6
20260505212652 54 339 4.0 8.0 0.00 0.00 0.00 89 1007.6
20260505212157 54 326 5.0 8.0 0.00 0.00 0.00 90 1007.6
20260505211703 54 331 5.0 8.0 0.00 0.00 0.00 90 1007.6
20260505211209 55 315 5.0 9.0 0.00 0.00 0.00 86 1007.3
20260505210714 56 323 6.0 11.0 0.00 0.00 0.00 83 1007.0
20260505210219 58 322 9.0 16.0 0.00 0.00 0.00 82 1006.9
20260505205725 61 309 7.0 11.0 0.00 0.00 0.00 79 1006.7
20260505205230 62 294 4.0 6.0 0.00 0.00 0.00 71 1006.6
20260505204735 62 312 4.0 5.0 0.00 0.00 0.00 72 1006.2
20260505203747 62 318 3.0 5.0 0.00 0.00 0.00 67 1005.6
20260505203252 62 331 3.0 5.0 0.00 0.00 0.00 65 1005.0
20260505202757 62 355 3.0 5.0 0.00 0.00 0.00 65 1004.7
20260505202306 62 321 3.0 8.0 0.00 0.00 0.00 65 1004.7
20260505201808 62 346 3.0 7.0 0.00 0.00 0.00 64 1004.6
20260505201313 62 328 3.0 6.0 0.00 0.00 0.00 64 1004.5
20260505200324 62 352 3.0 5.0 0.00 0.00 0.00 64 1004.4
20260505195829 62 341 2.0 4.0 0.00 0.00 0.00 63 1004.4
20260505195335 62 5 3.0 9.0 0.00 0.00 0.00 63 1004.3
20260505194840 62 340 2.0 3.0 0.00 0.00 0.00 62 1004.5
20260505194346 62 350 2.0 4.0 0.00 0.00 0.00 62 1004.5
20260505193851 62 317 2.0 5.0 0.00 0.00 0.00 62 1004.5
20260505193356 62 330 2.0 4.0 0.00 0.00 0.00 63 1004.5
20260505192902 61 353 2.0 4.0 0.00 0.00 0.00 62 1004.4
20260505192407 61 310 1.0 3.0 0.00 0.00 0.00 61 1004.6
20260505191913 62 330 1.0 2.0 0.00 0.00 0.00 61 1004.8
20260505190924 61 9 2.0 4.0 0.00 0.00 0.00 61 1004.9
20260505190429 61 330 2.0 3.0 0.00 0.00 0.00 60 1005.0
20260505185935 61 342 2.0 3.0 0.00 0.00 0.00 59 1005.1
20260505185440 62 333 2.0 3.0 0.00 0.00 0.00 58 1005.3
20260505184946 62 5 1.0 3.0 0.00 0.00 0.00 56 1005.4
20260505184451 62 322 1.0 4.0 0.00 0.00 0.00 55 1005.4
20260505183956 63 20 3.0 4.0 0.00 0.00 0.00 55 1005.3
20260505183502 63 60 5.0 7.0 0.00 0.00 0.00 54 1005.3
20260505183007 63 54 5.0 6.0 0.00 0.00 0.00 56 1005.2
20260505182018 62 75 6.0 8.0 0.00 0.00 0.00 59 1005.2
20260505181523 63 87 6.0 8.0 0.00 0.00 0.00 62 1005.3
20260505181028 63 91 8.0 11.0 0.00 0.00 0.00 70 1005.3
20260505180534 64 100 9.0 11.0 0.00 0.00 0.00 73 1005.4
20260505180039 65 137 10.0 12.0 0.00 0.00 0.00 65 1005.4
20260505175544 68 118 10.0 13.0 0.00 0.00 0.00 53 1005.4
20260505175049 69 111 6.0 7.0 0.00 0.00 0.00 55 1005.2
20260505174554 69 140 4.0 7.0 0.00 0.00 0.00 49 1005.1
20260505174059 69 278 1.0 3.0 0.00 0.00 0.00 42 1005.0
20260505173604 70 2 2.0 4.0 0.00 0.00 0.00 42 1005.0
20260505173109 70 221 2.0 5.0 0.00 0.00 0.00 41 1004.9
20260505172614 70 316 2.0 6.0 0.00 0.00 0.00 41 1004.9
20260505172119 71 130 3.0 4.0 0.00 0.00 0.00 41 1004.9
20260505171128 72 58 3.0 7.0 0.00 0.00 0.00 40 1005.0
20260505170633 72 23 3.0 6.0 0.00 0.00 0.00 40 1005.1
20260505170138 73 68 2.0 5.0 0.00 0.00 0.00 39 1005.1
20260505165643 74 8 3.0 7.0 0.00 0.00 0.00 38 1005.1
20260505165147 74 231 3.0 7.0 0.00 0.00 0.00 38 1005.1
20260505164653 74 175 3.0 6.0 0.00 0.00 0.00 38 1005.1
20260505164157 74 98 3.0 5.0 0.00 0.00 0.00 38 1005.0
20260505163701 75 92 3.0 9.0 0.00 0.00 0.00 38 1005.0
20260505163206 75 121 3.0 6.0 0.00 0.00 0.00 37 1005.0
20260505162710 76 138 4.0 7.0 0.00 0.00 0.00 37 1004.9
20260505162215 76 204 3.0 5.0 0.00 0.00 0.00 37 1004.8
20260505161720 77 164 3.0 5.0 0.00 0.00 0.00 37 1004.9
20260505160728 77 98 3.0 5.0 0.00 0.00 0.00 37 1005.0
20260505153259 79 127 4.0 7.0 0.00 0.00 0.00 35 1005.2
20260505152803 79 78 2.0 5.0 0.00 0.00 0.00 35 1005.4
20260505152308 79 57 3.0 5.0 0.00 0.00 0.00 35 1005.4
20260505151812 78 29 3.0 5.0 0.00 0.00 0.00 35 1005.6
20260505151317 77 173 3.0 6.0 0.00 0.00 0.00 34 1005.5
20260505150821 77 193 3.0 9.0 0.00 0.00 0.00 35 1005.5
20260505150326 77 172 3.0 7.0 0.00 0.00 0.00 34 1005.6
20260505140418 81 139 8.0 11.0 0.00 0.00 0.00 32 1005.9
20260505125017 84 102 4.0 6.0 0.00 0.00 0.00 33 1006.3
20260505123528 83 159 3.0 5.0 0.00 0.00 0.00 35 1006.6
20260505123032 83 179 6.0 8.0 0.00 0.00 0.00 35 1006.7
20260505122536 84 167 5.0 8.0 0.00 0.00 0.00 32 1006.7
20260505122040 85 142 5.0 8.0 0.00 0.00 0.00 36 1006.8
20260505121543 86 117 3.0 8.0 0.00 0.00 0.00 32 1006.8
20260505121047 86 139 4.0 6.0 0.00 0.00 0.00 36 1006.9
20260505120551 86 92 3.0 5.0 0.00 0.00 0.00 36 1006.9
20260505120054 87 132 2.0 4.0 0.00 0.00 0.00 36 1007.0
20260505115558 86 89 4.0 7.0 0.00 0.00 0.00 37 1007.1
20260505115102 87 116 3.0 6.0 0.00 0.00 0.00 36 1007.1
20260505114605 88 93 3.0 5.0 0.00 0.00 0.00 35 1007.0
20260505114109 89 223 3.0 6.0 0.00 0.00 0.00 33 1007.0
20260505113612 89 28 2.0 4.0 0.00 0.00 0.00 35 1007.2
20260505113116 88 332 2.0 4.0 0.00 0.00 0.00 36 1007.2
20260505112620 86 63 3.0 4.0 0.00 0.00 0.00 37 1007.3
20260505112124 85 126 3.0 5.0 0.00 0.00 0.00 37 1007.3
20260505111627 87 197 3.0 6.0 0.00 0.00 0.00 34 1007.4
20260505111131 88 59 3.0 5.0 0.00 0.00 0.00 36 1007.4
20260505110635 87 28 2.0 4.0 0.00 0.00 0.00 36 1007.4
20260505110139 85 152 3.0 6.0 0.00 0.00 0.00 37 1007.5
20260505102210 85 280 1.0 3.0 0.00 0.00 0.00 37 1008.0
20260505101715 82 135 3.0 5.0 0.00 0.00 0.00 38 1008.1
20260505101219 80 164 3.0 5.0 0.00 0.00 0.00 38 1008.0
20260505100723 78 152 3.0 4.0 0.00 0.00 0.00 39 1008.1
20260505100227 78 80 2.0 5.0 0.00 0.00 0.00 39 1008.1
20260505095732 79 86 5.0 7.0 0.00 0.00 0.00 39 1008.1
20260505095236 81 114 5.0 7.0 0.00 0.00 0.00 37 1008.1
20260505094740 82 139 4.0 7.0 0.00 0.00 0.00 37 1008.0
20260505094244 81 132 5.0 7.0 0.00 0.00 0.00 38 1008.1
20260505093748 83 74 4.0 6.0 0.00 0.00 0.00 36 1008.2
20260505093252 82 78 3.0 5.0 0.00 0.00 0.00 40 1008.3
20260505092756 80 110 4.0 6.0 0.00 0.00 0.00 40 1008.3
20260505092300 80 99 5.0 6.0 0.00 0.00 0.00 40 1008.4
20260505091805 81 111 4.0 6.0 0.00 0.00 0.00 40 1008.4
20260505091309 81 107 3.0 4.0 0.00 0.00 0.00 41 1008.4
20260505090813 80 118 4.0 7.0 0.00 0.00 0.00 39 1008.5
20260505090317 82 156 3.0 5.0 0.00 0.00 0.00 40 1008.5
20260505085821 81 111 4.0 6.0 0.00 0.00 0.00 41 1008.6
20260505084829 81 129 3.0 4.0 0.00 0.00 0.00 41 1008.6
20260505084334 80 111 3.0 6.0 0.00 0.00 0.00 41 1008.6
20260505083838 79 94 3.0 8.0 0.00 0.00 0.00 42 1008.6
20260505083342 78 117 4.0 6.0 0.00 0.00 0.00 43 1008.6
20260505082847 78 84 4.0 6.0 0.00 0.00 0.00 43 1008.7
20260505082351 77 129 3.0 5.0 0.00 0.00 0.00 44 1008.7
20260505081856 75 122 5.0 7.0 0.00 0.00 0.00 43 1008.8
20260505081401 75 102 4.0 7.0 0.00 0.00 0.00 44 1008.9
20260505080905 74 106 5.0 6.0 0.00 0.00 0.00 44 1008.9
20260505080410 73 105 4.0 5.0 0.00 0.00 0.00 46 1008.9
20260505075915 73 96 4.0 7.0 0.00 0.00 0.00 45 1008.9
20260505075419 74 111 4.0 5.0 0.00 0.00 0.00 45 1008.9
20260505074924 75 132 5.0 7.0 0.00 0.00 0.00 45 1009.0
20260505074429 77 148 3.0 6.0 0.00 0.00 0.00 44 1009.1
20260505073933 76 128 3.0 5.0 0.00 0.00 0.00 46 1009.1
20260505073438 75 96 5.0 7.0 0.00 0.00 0.00 45 1009.1
20260505072942 75 117 4.0 7.0 0.00 0.00 0.00 45 1009.1
20260505072447 74 118 4.0 6.0 0.00 0.00 0.00 47 1009.1
20260505071952 73 113 4.0 7.0 0.00 0.00 0.00 46 1009.2
20260505071457 74 122 4.0 7.0 0.00 0.00 0.00 47 1009.2
20260505071002 75 101 4.0 5.0 0.00 0.00 0.00 46 1009.2
20260505070506 75 140 3.0 5.0 0.00 0.00 0.00 46 1009.3
20260505070011 74 156 3.0 5.0 0.00 0.00 0.00 47 1009.3
20260505065515 74 136 2.0 4.0 0.00 0.00 0.00 47 1009.3
20260505064525 70 82 2.0 3.0 0.00 0.00 0.00 50 1009.4
20260505064031 67 47 2.0 3.0 0.00 0.00 0.00 51 1009.4
20260505063536 66 57 2.0 3.0 0.00 0.00 0.00 52 1009.5
20260505063041 66 357 1.0 2.0 0.00 0.00 0.00 53 1009.5
20260505062547 65 256 0.0 2.0 0.00 0.00 0.00 55 1009.5
20260505061557 63 71 2.0 3.0 0.00 0.00 0.00 55 1009.5
20260505061103 63 99 2.0 3.0 0.00 0.00 0.00 56 1009.6
20260505060608 62 111 2.0 2.0 0.00 0.00 0.00 56 1009.7
20260505060114 61 128 1.0 2.0 0.00 0.00 0.00 57 1009.7
20260505055619 61 195 1.0 2.0 0.00 0.00 0.00 57 1009.7
20260505055125 60 324 1.0 2.0 0.00 0.00 0.00 57 1009.7
20260505054136 59 329 4.0 6.0 0.00 0.00 0.00 59 1009.6
20260505053642 59 336 6.0 7.0 0.00 0.00 0.00 58 1009.5
20260505053147 59 333 6.0 7.0 0.00 0.00 0.00 62 1009.4
20260505052653 60 324 5.0 6.0 0.00 0.00 0.00 59 1009.5
20260505052158 60 315 4.0 5.0 0.00 0.00 0.00 58 1009.5
20260505051704 60 315 3.0 4.0 0.00 0.00 0.00 55 1009.6
20260505051209 61 315 2.0 3.0 0.00 0.00 0.00 55 1009.6
20260505050715 61 318 1.0 2.0 0.00 0.00 0.00 53 1009.6
20260505050220 61 251 0.0 1.0 0.00 0.00 0.00 52 1009.7